This is the latest recevied weather packets stored in our database for station/object CE2KVL-1. If no packets are shown the sender has not sent any weather packets the latest 10 day(s).
| Time | Temp. | Humidity | Pressure | Rain* | Wind** | Luminosity | Snow |
|---|---|---|---|---|---|---|---|
| 1777482777 | 20° C | 63% | 1018.8 hPa | - | - | - | - |
| 1777482477 | 20.56° C | 63% | 1018 hPa | - | - | - | - |
| 1777482177 | 20° C | 63% | 1018.2 hPa | - | - | - | - |
| 1777481878 | 20° C | 66% | 1018.1 hPa | - | - | - | - |
| 1777481577 | 19.44° C | 66% | 1018.8 hPa | - | - | - | - |
| 1777481277 | 19.44° C | 66% | 1018.6 hPa | - | - | - | - |
| 1777480977 | 19.44° C | 65% | 1018.9 hPa | - | - | - | - |
| 1777480677 | 19.44° C | 64% | 1018.6 hPa | - | - | - | - |
| 1777480377 | 19.44° C | 65% | 1019.2 hPa | - | - | - | - |
| 1777480077 | 19.44° C | 66% | 1018.7 hPa | - | - | - | - |
| 1777479777 | 19.44° C | 67% | 1019.2 hPa | - | - | - | - |
| 1777479477 | 19.44° C | 68% | 1019 hPa | - | - | - | - |
| 1777479177 | 19.44° C | 68% | 1019.3 hPa | - | - | - | - |
| 1777478877 | 18.89° C | 69% | 1019.7 hPa | - | - | - | - |
| 1777478577 | 19.44° C | 68% | 1019.4 hPa | - | - | - | - |
| 1777478277 | 19.44° C | 67% | 1019.2 hPa | - | - | - | - |
| 1777477977 | 18.89° C | 70% | 1019.9 hPa | - | - | - | - |
| 1777477677 | 19.44° C | 70% | 1019.5 hPa | - | - | - | - |
| 1777477377 | 18.89° C | 68% | 1019.4 hPa | - | - | - | - |
| 1777477077 | 18.89° C | 67% | 1020.2 hPa | - | - | - | - |
| 1777476777 | 18.89° C | 69% | 1019.3 hPa | - | - | - | - |
| 1777476477 | 18.89° C | 70% | 1019.7 hPa | - | - | - | - |
| 1777476177 | 18.33° C | 73% | 1019.6 hPa | - | - | - | - |
| 1777475877 | 18.33° C | 72% | 1020.4 hPa | - | - | - | - |
| 1777475577 | 18.33° C | 77% | 1019.8 hPa | - | - | - | - |
* Rain since midnight (hover to see other rain measurements)
** Current wind speed in m/s (hover to see current wind gust speed)